Location: Huppendorf
(49.9333°N, 11.1500°E)
Time: 08:58:25
(UTC+00:00)

Cosmos 1656 Rocket - Pass Details

Date: 27 February 2020
Orbit: 794 x 848 km, 71.1° (Epoch: 27 March)

Event Time Altitude Azimuth Distance (km) Brightness Sun altitude
Rises 18:17:32 0° 215° (SW) 3,329 7.2 -14.3°
Reaches altitude 10° 18:19:56 10° 218° (SW) 2,409 6.5 -14.7°
Maximum altitude 18:25:27 69° 302° (WNW) 889 4.0 -15.6°
Drops below altitude 10° 18:31:04 10° 25° (NNE) 2,460 5.9 -16.5°
Sets 18:33:34 0° 28° (NNE) 3,405 6.6 -16.9°
